TIANMU-1 21

Last updated on Sun Oct 26 2025 00:02:30 GMT+0000 (Coordinated Universal Time)

1 58662U 23208C 25298.55490660 .00014143 00000+0 48727-3 0 9996 2 58662 97.4362 51.8428 0008309 76.8045 283.4122 15.30099475101623
UTC large
Height (km)
Speed (km/s)
/
Latitude / Longitude
Inclination (degrees)
Orbital Period (minutes)
Azimuth
Elevation
Range (km)
Doppler Factor

Next 0 passes for location: London (51.5072 / 0.1276)

Sorry there are no passes over London.